Regional Weather Roundup
Issued by NWS Sterling, VA

Home | Current Version | Previous Version | Text Only | Print | Product List | Glossary Off
Versions: 1 2 3 4 5 6 7 8 9 10 11 12 13 14 15 16 17 18 19 20 21 22 23 24 25 26 27 28 29 30 31 32 33 34 35 36 37 38 39 40 41 42 43 44 45 46 47 48 49 50

908
ASUS41 KLWX 020110
RWRLWX

REGIONAL WEATHER ROUNDUP
NATIONAL WEATHER SERVICE BALTIMORE MD/WASHINGTON DC
900 PM EDT SUN MAY 01 2016

Note: "FAIR" indicates few or no clouds below 12,000 feet
with no significant weather and/or obstructions to visibility.
 TC=TEMPERATURE CELSIUS

 * =Non NWS site. Station does not report precipitation (e.g. rain,
    snow, etc.), thunder, or fog.

DCZ001-MDZ009-015-VAZ040>042-051-053>054-020200-
WASHINGTON METRO

CITY           SKY/WX    TMP DP  RH WIND       PRES   REMARKS
WASHINGTON NAT DRIZZLE   56  55  97 E7        30.04R FOG
DULLES         FOG       56  54  93 NE8       30.03S VSB 1
ANDREWS AFB    CLOUDY    55  54  97 NE6       30.03R FOG
FT BELVOIR     CLOUDY    57  55  94 VRB1      30.03R
QUANTICO       CLOUDY    60  57  89 E6        30.03R
COLLEGE PARK*  CLOUDY    54  52  94 CALM      30.05R
LEESBURG*      CLOUDY    55  55 100 E5        30.06R FOG
MANASSAS*      CLOUDY    57  57 100 E3        30.02R
GAITHERSBURG*  CLOUDY    54  50  87 CALM      30.08R

$$

MDZ006>007-011-014-020200-
BALTIMORE METRO

CITY           SKY/WX    TMP DP  RH WIND       PRES   REMARKS
BWI AIRPORT    DRIZZLE   54  53  97 NE8       30.05R FOG
MD SCIENCE CTR   N/A     54  52  93 MISG      30.05R
MARTIN STATE   CLOUDY    55  55 100 CALM      30.07R FOG
ANNAPOLIS      CLOUDY    55  54  96 NE6       30.04S FOG
FORT MEADE*    CLOUDY    54  52  94 CALM      30.08R

$$

MDZ012-015-019>023-020200-
MARYLAND EASTERN SHORE

CITY           SKY/WX    TMP DP  RH WIND       PRES   REMARKS
OCEAN CITY     CLOUDY    54  53  97 N6        30.03S
SALISBURY      CLOUDY    56  56 100 NE5       30.03R FOG
CAMBRIDGE*     CLOUDY    54  54 100 NE3       30.03R
EASTON*        CLOUDY   N/A N/A N/A E6        30.07R FOG

$$

MDZ017>025-020200-
SOUTHERN MARYLAND

CITY           SKY/WX    TMP DP  RH WIND       PRES   REMARKS
PATUXENT RIVER CLOUDY    57  55  93 NE3       30.02S
ST INIGOES     CLOUDY    59  57  93 E5          N/A
LEONARDTOWN*   CLOUDY    55  54  94 CALM      30.04R

$$

MDZ003>005-020200-
NORTH CENTRAL MARYLAND

CITY           SKY/WX    TMP DP  RH WIND       PRES   REMARKS
FREDERICK*     CLOUDY    54  54 100 CALM      30.07S
HAGERSTOWN APT CLOUDY    57  53  86 CALM      30.00F
WESTMINSTER*   CLOUDY    52  48  87 CALM      30.04F FOG

$$

MDZ501>502-020200-
WESTERN MARYLAND

CITY           SKY/WX    TMP DP  RH WIND       PRES   REMARKS
OAKLAND*       CLOUDY    55  54  94 SE7       30.01S
CUMBERLAND*    CLOUDY    59  57  94 CALM      30.02F

$$

VAZ025>031-020200-
SHENANDOAH VALLEY

CITY           SKY/WX    TMP DP  RH WIND       PRES   REMARKS
WINCHESTER*    CLOUDY    59  55  88 E6        30.02R
FRONT ROYAL*   CLOUDY    59  57  94 N6        29.99R
LURAY*         TSTM      61  61 100 CALM      29.98R
NEW MARKET*    MOCLDY    62  58  89 N7        29.97R
STAUNTON*      FAIR      66  62  86 CALM      30.01R
WAYNESBORO*    FAIR      62  60  93 MISG      29.99R

$$

WVZ021-048>050-054>055-020200-
EASTERN WEST VIRGINIA PANHANDLE

CITY           SKY/WX    TMP DP  RH WIND       PRES   REMARKS
MARTINSBURG    CLOUDY    56  54  93 E5        30.01F
PETERSBURG*    RAIN      67  61  81 N6        29.99R

$$

VAZ036>039-050-020200-
CENTRAL FOOTHILLS

CITY           SKY/WX    TMP DP  RH WIND       PRES   REMARKS
CHARLOTTESVILL CLOUDY    64  59  83 NE7       30.00R
CULPEPER*      DRIZZLE   60  59  97 CALM      30.03R
ORANGE*        CLOUDY    63  63 100 CALM      30.03R
GORDONSVILLE*  CLOUDY    63  61  95 CALM      30.00R
WARRENTON*     CLOUDY    59  55  85 E3        30.02R

$$

VAZ055>057-020200-
NORTH AND CENTRAL PIEDMONT

CITY           SKY/WX    TMP DP  RH WIND       PRES   REMARKS
FREDERICKSBRG* CLOUDY    60  60 100 CALM      30.01S
STAFFORD*      CLOUDY    58  56  95 E3        30.05S FOG

$$

NCZ024-NYZ072-PAZ021-071-VAZ022-071-020200-
OTHER REGIONAL OBSERVATIONS

CITY           SKY/WX    TMP DP  RH WIND       PRES   REMARKS
NEW YORK CITY  CLOUDY    45  42  89 E9        30.13S
PHILADELPHIA   CLOUDY    52  48  86 NE9       30.08S
PITTSBURGH     CLOUDY    61  55  81 CALM      29.92F
ROANOKE        CLOUDY    70  63  78 SE8       29.98R THUNDER
RICHMOND       CLOUDY    64  63  96 NE5       30.00R FOG
RALEIGH        CLOUDY    71  65  81 SW9       30.01R

$$

ANZ530>537-020200-
MARINE OBSERVATIONS

STATION/POSITION TIME  TEMP    WIND        PRES
                       AIR SEA DIR/SP/G
                 (UTC) (F)     (DEG/KT/KT) (MB)
THOMAS PT LIGHT  0100   54 57   80/  6/  6 1018.7R
BALT KEY BRIDGE  0000           70/  4/  4 1017.0R
COVE POINT       0000          110/  5/  6 1016.9R
LEWISETTA        0000      59                N/A
SOLOMONS ISLAND  0000      59                N/A
PINEY POINT      0000           80/  5/  7   N/A

$$





USA.gov is the U.S. government's official web portal to all federal, state and local government web resources and services.